Temp
23 23 23 23 24 25 24 24 24 26 26 28 26 24 22 23 22 23 24 26 27 27 27 27 26 26 26 25 24 24 23 23 23 22 22 20 21 20 20 20 20 20 20 20
23 24 25 26 27 25 23 23 23 26 28 27 23 24 23 23 23 24 25 25 26 27 27 26 26 26 26 26 25 24 24 23 23 23 22 21 21 21 20 20 20 20 20 21
24 27 28 27 26 26 24 23 25 28 27 26 24 23 22 23 23 23 25 26 26 26 27 26 26 26 26 26 25 25 24 24 23 23 22 21 21 21 20 20 20 20 20 21
23 26 29 30 30 26 24 27 28 28 26 24 25 23 21 21 22 23 23 24 26 27 27 26 26 26 26 26 26 25 25 24 23 23 22 22 21 21 21 21 21 21 21 21
26 27 28 28 31 30 30 31 30 29 25 25 26 24 24 21 22 23 25 25 27 28 27 27 27 26 26 26 25 25 25 24 24 23 22 22 21 22 21 20 20 21 21 21
26 29 28 29 31 30 32 29 26 23 22 22 24 24 24 23 25 26 27 29 29 29 28 27 27 26 26 26 25 25 24 25 23 22 22 21 21 21 20 20 20 20 20 20
24 27 30 32 30 29 28 24 23 23 24 23 22 24 24 26 26 26 26 29 27 28 28 28 27 27 26 25 25 25 25 24 23 22 22 22 21 21 20 20 21 19 19 19
24 26 29 31 30 30 30 25 23 26 24 26 24 25 26 27 29 31 32 31 28 28 28 28 28 27 27 27 26 25 25 24 23 22 21 22 20 21 20 20 21 20 19 19
25 26 30 31 31 30 31 28 26 25 24 24 23 27 28 27 28 28 29 29 27 27 27 27 27 27 27 26 26 26 25 24 23 21 20 20 19 20 20 19 20 19 17 18
27 26 28 31 31 31 29 29 26 21 26 27 24 26 24 26 26 25 25 26 27 26 25 26 25 25 25 25 25 24 24 22 21 21 20 19 19 18 19 19 18 18 17 17
25 24 27 29 29 28 28 27 25 22 21 23 22 24 23 24 24 24 24 26 26 25 25 25 24 23 23 23 22 22 22 21 21 20 19 18 19 18 17 17 17 17 16 18
25 22 24 27 27 28 29 29 24 22 25 21 21 23 25 26 25 24 24 25 26 26 25 24 24 23 22 21 21 20 20 20 20 20 20 19 19 17 15 15 16 15 16 17
28 23 21 23 24 26 27 27 29 21 19 24 23 23 23 23 23 24 24 25 26 26 26 26 25 24 23 22 20 19 19 19 19 18 18 18 19 20 15 15 15 15 15 16
29 21 22 21 24 24 27 26 27 24 21 23 22 26 24 22 22 23 25 27 27 26 25 24 23 23 24 22 20 20 19 19 18 17 17 17 16 17 16 16 15 16 15 15
25 25 23 23 23 27 27 28 27 26 25 25 25 22 21 21 21 24 26 25 24 24 23 24 23 23 22 21 19 19 19 18 18 16 15 16 16 17 16 16 17 16 16 15
23 25 24 27 27 27 27 26 26 26 27 27 22 23 22 24 25 25 25 25 24 24 24 23 22 22 21 21 20 20 19 19 17 16 15 16 16 16 16 17 16 15 15 13
24 23 22 23 24 25 24 26 26 26 26 25 22 22 21 22 23 23 24 24 24 23 23 23 23 23 22 22 20 20 19 18 17 16 15 15 15 15 15 14 14 14 13 14
25 22 19 22 22 24 24 25 27 26 26 24 23 22 22 22 24 24 24 24 24 24 24 23 23 22 22 21 21 20 18 17 17 16 15 14 15 14 15 14 14 14 14 14
22 20 21 22 20 23 27 28 28 27 25 24 22 22 23 23 23 23 24 24 24 24 24 23 23 23 22 21 21 19 18 17 16 15 14 14 14 14 14 14 14 14 14 14
22 19 21 19 23 23 23 26 29 26 22 24 23 22 23 23 20 18 24 24 24 24 23 23 23 22 21 20 20 19 18 17 16 15 14 13 13 13 13 13 13 14 14 14
20 20 23 20 21 21 24 28 28 24 22 25 25 25 24 21 23 25 25 24 24 23 23 23 22 22 21 20 19 19 18 17 16 15 14 14 13 13 14 13 13 13 13 13
22 21 20 19 23 24 27 27 26 23 25 26 26 26 25 25 25 25 24 24 24 23 22 22 22 21 20 19 18 18 18 17 16 15 14 14 13 13 13 13 13 13 13 13
22 21 20 20 21 23 26 26 27 27 26 25 26 25 25 25 25 25 24 24 24 23 23 22 21 20 20 20 19 18 18 16 16 15 15 14 14 14 13 13 13 13 13 13
21 21 20 20 22 23 25 25 25 25 25 25 25 24 24 24 24 24 24 23 23 23 22 22 21 20 20 19 19 18 17 16 15 15 14 14 14 14 14 14 14 14 13 13
20 21 20 17 20 23 24 25 25 25 25 25 25 24 24 24 23 23 23 23 23 22 22 21 21 20 20 19 19 18 17 16 15 15 15 14 14 14 14 14 13 13 13 13
22 19 18 17 23 21 23 26 25 25 25 24 24 24 24 23 23 23 23 23 22 22 21 21 21 20 20 19 19 18 17 16 15 15 15 14 14 14 14 14 13 13 14 13
Height
1519 1523 1530 1523 1512 1514 1521 1525 1525 1512 1506 1507 1512 1514 1509 1509 1512 1511 1510 1510 1512 1516 1518 1519 1522 1523 1525 1527 1528 1531 1534 1536 1539 1543 1547 1550 1552 1554 1556 1558 1561 1562 1563 1564
1519 1523 1512 1507 1508 1515 1522 1527 1524 1508 1499 1506 1516 1517 1510 1511 1508 1508 1510 1509 1511 1514 1516 1517 1518 1520 1520 1520 1523 1525 1527 1530 1531 1534 1537 1542 1545 1548 1552 1554 1555 1557 1559 1560
1522 1510 1506 1511 1510 1516 1519 1523 1513 1507 1505 1510 1518 1527 1517 1511 1510 1508 1506 1508 1507 1508 1510 1512 1514 1513 1515 1516 1518 1521 1523 1526 1528 1530 1535 1536 1539 1541 1544 1547 1550 1551 1553 1555
1517 1503 1503 1502 1503 1506 1524 1496 1503 1502 1514 1536 1512 1549 1524 1513 1509 1509 1502 1502 1501 1503 1507 1508 1509 1510 1511 1513 1516 1519 1525 1526 1527 1528 1529 1531 1532 1534 1536 1540 1543 1545 1547 1548
1512 1502 1501 1503 1496 1495 1499 1486 1491 1490 1507 1515 1518 1533 1520 1512 1514 1502 1496 1496 1496 1497 1500 1504 1506 1506 1509 1511 1512 1517 1519 1519 1522 1524 1526 1527 1528 1529 1532 1535 1536 1538 1539 1539
1506 1498 1497 1493 1487 1487 1485 1491 1497 1506 1517 1543 1518 1523 1521 1516 1502 1498 1494 1492 1492 1493 1495 1499 1503 1505 1507 1510 1510 1512 1514 1512 1516 1519 1519 1520 1522 1524 1525 1527 1527 1528 1528 1530
1512 1501 1489 1487 1493 1486 1491 1511 1543 1545 1541 1545 1513 1521 1511 1494 1491 1488 1489 1489 1492 1492 1492 1493 1496 1499 1503 1504 1505 1507 1508 1508 1509 1510 1512 1513 1516 1519 1521 1522 1521 1523 1524 1526
1530 1527 1496 1483 1489 1494 1492 1507 1539 1546 1551 1529 1511 1525 1504 1482 1483 1484 1484 1487 1490 1490 1490 1491 1492 1494 1497 1497 1496 1498 1500 1502 1502 1504 1506 1507 1512 1513 1516 1517 1517 1518 1521 1522
1525 1517 1487 1483 1481 1486 1493 1509 1497 1520 1525 1531 1526 1503 1490 1487 1484 1484 1485 1487 1490 1490 1491 1492 1494 1495 1496 1495 1495 1494 1497 1497 1498 1498 1500 1500 1503 1506 1507 1511 1512 1514 1518 1518
1504 1523 1493 1483 1479 1482 1487 1486 1517 1527 1541 1538 1533 1517 1519 1495 1491 1488 1487 1487 1491 1492 1492 1493 1494 1495 1495 1496 1495 1494 1496 1494 1495 1495 1495 1496 1498 1500 1501 1505 1507 1510 1512 1514
1505 1516 1504 1490 1497 1499 1494 1502 1504 1515 1530 1546 1554 1529 1486 1487 1484 1486 1489 1489 1492 1493 1493 1493 1493 1494 1493 1493 1493 1494 1493 1492 1491 1489 1488 1488 1488 1489 1495 1500 1500 1506 1506 1507
1499 1514 1522 1505 1491 1486 1488 1494 1509 1532 1528 1530 1534 1523 1478 1477 1481 1483 1489 1490 1491 1492 1493 1493 1491 1491 1491 1490 1490 1490 1489 1488 1486 1483 1481 1481 1482 1485 1491 1490 1488 1501 1507 1503
1490 1516 1540 1523 1503 1490 1497 1494 1492 1509 1520 1524 1536 1522 1483 1479 1483 1485 1486 1489 1490 1490 1490 1490 1491 1490 1488 1487 1485 1485 1485 1483 1481 1477 1476 1476 1475 1476 1480 1485 1480 1492 1504 1503
1486 1512 1524 1544 1524 1509 1507 1500 1496 1506 1530 1523 1521 1500 1491 1488 1487 1487 1486 1486 1486 1486 1487 1487 1487 1486 1486 1484 1483 1482 1480 1476 1474 1472 1470 1473 1473 1474 1469 1478 1487 1493 1493 1499
1489 1510 1509 1507 1504 1498 1498 1497 1496 1500 1500 1509 1497 1501 1493 1486 1483 1482 1483 1483 1484 1484 1484 1484 1483 1483 1482 1480 1478 1476 1475 1472 1470 1468 1468 1468 1469 1471 1475 1477 1477 1480 1487 1486
1492 1506 1504 1503 1495 1494 1498 1493 1491 1489 1485 1482 1490 1490 1480 1481 1480 1481 1480 1479 1478 1479 1480 1481 1481 1480 1478 1476 1474 1472 1470 1467 1466 1465 1466 1465 1467 1469 1472 1471 1473 1477 1483 1489
1494 1502 1510 1519 1500 1499 1510 1492 1487 1485 1478 1479 1494 1479 1475 1478 1477 1477 1477 1476 1476 1476 1477 1478 1477 1476 1474 1472 1471 1470 1468 1465 1463 1461 1463 1465 1467 1468 1469 1470 1474 1477 1481 1484
1488 1497 1509 1516 1508 1526 1489 1473 1473 1477 1474 1473 1472 1473 1475 1475 1476 1475 1475 1475 1475 1474 1474 1474 1473 1472 1471 1469 1468 1467 1466 1464 1462 1459 1460 1462 1463 1464 1467 1468 1472 1474 1476 1479
1478 1494 1506 1512 1518 1497 1479 1469 1470 1473 1478 1469 1470 1472 1474 1475 1475 1475 1473 1472 1471 1471 1471 1470 1470 1468 1466 1465 1464 1463 1464 1463 1462 1458 1458 1460 1461 1461 1463 1465 1468 1469 1472 1475
1479 1483 1497 1509 1509 1514 1481 1459 1455 1459 1487 1466 1467 1470 1471 1472 1480 1474 1470 1469 1469 1468 1466 1466 1466 1464 1463 1462 1461 1460 1460 1460 1460 1459 1457 1458 1459 1460 1461 1463 1464 1467 1470 1472
1497 1494 1497 1502 1505 1490 1464 1456 1454 1483 1480 1460 1462 1464 1465 1467 1466 1465 1465 1465 1464 1464 1463 1462 1462 1461 1461 1459 1458 1457 1457 1456 1458 1457 1457 1458 1459 1461 1462 1462 1465 1468 1471 1474
1498 1501 1506 1502 1497 1498 1462 1460 1467 1460 1455 1457 1458 1459 1461 1461 1461 1460 1460 1460 1460 1459 1458 1458 1458 1457 1456 1455 1455 1453 1453 1453 1455 1454 1454 1457 1459 1460 1462 1463 1465 1466 1469 1473
1496 1492 1500 1496 1492 1468 1463 1459 1457 1456 1456 1457 1458 1459 1459 1458 1457 1457 1456 1455 1455 1454 1453 1452 1452 1453 1452 1451 1450 1450 1450 1451 1452 1453 1453 1455 1459 1460 1461 1463 1464 1466 1470 1471
1482 1480 1487 1485 1475 1469 1465 1463 1461 1460 1458 1458 1458 1458 1457 1456 1455 1454 1452 1450 1449 1448 1448 1448 1448 1448 1448 1447 1446 1446 1446 1448 1450 1451 1453 1453 1455 1458 1460 1461 1464 1465 1467 1470
1482 1479 1480 1483 1473 1469 1465 1462 1459 1458 1457 1455 1454 1454 1453 1453 1453 1451 1450 1449 1447 1445 1443 1443 1443 1442 1442 1442 1441 1442 1443 1444 1445 1448 1450 1452 1453 1456 1458 1459 1461 1463 1464 1466
1476 1478 1483 1484 1470 1469 1463 1459 1457 1454 1452 1451 1451 1450 1449 1448 1447 1446 1444 1442 1442 1441 1440 1439 1437 1436 1436 1435 1436 1437 1439 1440 1441 1443 1445 1448 1450 1451 1455 1456 1458 1460 1460 1462
Wind_Speed
4 3 3 9 8 4 3 4 6 6 8 4 5 7 10 16 16 16 14 15 24 21 30 29 33 30 29 30 32 31 32 33 32 31 25 31 33 28 26 24 21 19 15 16
4 2 6 10 6 4 2 2 9 9 8 5 4 5 7 12 12 20 7 20 26 27 24 25 36 33 33 33 34 33 34 35 34 32 25 22 31 37 34 28 25 24 24 19
3 5 6 13 11 7 6 6 6 6 10 7 6 6 4 8 15 21 26 15 24 28 28 27 39 38 35 35 37 36 35 33 32 31 25 21 19 29 36 34 30 24 27 24
5 5 8 7 10 14 4 12 8 12 5 5 7 3 6 7 12 16 26 26 30 30 32 31 39 40 38 37 37 37 32 31 30 29 28 26 24 29 32 35 30 27 27 29
6 6 7 6 4 11 7 3 4 8 5 6 4 4 5 6 8 14 19 28 30 31 36 38 36 42 41 37 39 38 34 30 31 29 30 28 26 27 28 28 28 29 30 32
9 14 4 5 9 5 2 4 9 5 3 4 7 6 5 6 8 5 8 17 17 22 32 33 33 39 38 39 36 39 38 33 33 32 28 32 28 30 35 31 27 30 28 32
6 6 5 6 4 5 8 6 3 5 4 6 6 4 7 6 7 8 11 16 20 17 18 25 35 38 41 33 33 40 41 38 35 32 31 32 33 33 37 33 32 28 27 28
2 6 3 5 7 5 1 6 5 3 3 4 4 5 5 8 21 17 12 16 19 19 17 18 21 31 35 36 38 35 43 39 41 37 36 33 39 36 38 35 36 32 32 28
4 5 3 5 5 6 3 1 5 4 1 4 3 3 5 2 3 4 11 20 21 20 16 15 13 13 19 30 32 34 39 36 39 41 42 37 44 42 42 42 38 24 32 31
1 3 3 7 4 5 6 3 4 4 2 3 6 3 5 6 8 6 5 22 20 18 18 16 12 12 15 19 24 33 36 35 35 38 36 37 49 48 48 47 43 32 27 25
3 3 8 4 5 5 2 3 5 4 5 4 2 6 8 10 9 9 9 22 24 24 20 15 12 11 12 15 19 22 25 27 28 30 33 36 48 52 46 44 38 29 21 19
8 5 2 6 6 5 4 0 2 5 6 1 4 6 6 4 6 21 20 25 22 19 15 11 6 4 7 9 12 15 16 19 24 27 30 32 34 42 47 42 39 26 21 10
3 2 4 11 9 6 6 5 3 4 3 3 4 6 9 10 11 18 25 21 17 12 11 9 6 4 3 7 9 11 13 19 23 26 26 30 33 34 44 19 32 31 18 11
6 3 7 6 8 4 6 7 4 4 3 3 6 4 2 4 9 11 18 16 14 16 14 10 7 3 7 10 10 12 15 16 15 15 23 23 27 24 10 16 28 27 26 19
5 5 6 7 9 3 2 4 8 4 7 5 9 8 8 8 9 16 16 14 15 15 14 10 9 7 8 9 9 13 16 17 14 13 10 15 15 14 15 21 24 22 21 27
3 3 6 3 6 2 4 5 7 7 5 2 6 3 7 14 12 11 9 9 13 14 14 12 10 9 8 10 13 15 17 15 12 9 5 12 15 14 15 13 16 16 24 21
4 3 2 6 5 5 5 6 7 7 8 7 7 9 7 6 9 15 14 12 10 7 4 7 8 11 12 14 14 15 14 12 10 5 5 12 11 14 17 16 19 24 23 18
4 3 4 5 3 4 11 5 7 6 1 5 7 6 8 11 15 13 11 7 2 3 6 8 10 14 15 15 16 14 12 13 8 5 5 8 9 10 11 18 15 12 17 18
5 4 3 4 5 5 4 6 5 5 6 4 10 8 14 20 14 8 6 3 2 5 11 15 14 15 15 17 15 13 11 9 7 3 2 7 11 12 13 14 17 16 15 18
4 3 4 2 3 7 9 8 16 5 4 7 11 8 9 8 1 5 8 5 7 9 8 11 12 15 13 16 13 14 13 9 7 3 1 2 6 9 12 13 14 15 12 10
5 4 1 3 5 8 6 4 6 4 8 14 16 13 9 5 8 7 10 10 10 9 10 13 14 15 11 14 12 15 13 10 7 6 4 4 8 7 8 11 11 15 15 14
4 1 2 2 2 5 8 5 4 7 13 17 16 15 11 9 10 12 14 13 12 10 10 13 14 12 13 15 14 13 17 9 10 8 6 6 11 12 13 13 15 16 15 15
1 5 3 6 5 12 11 4 2 8 7 6 11 9 8 9 12 13 15 15 16 15 12 13 14 16 16 17 15 15 16 13 13 13 11 12 13 13 15 16 15 15 17 16
5 2 1 4 7 5 10 8 8 6 6 4 3 2 5 7 9 13 18 20 17 13 13 13 16 18 18 16 21 16 12 14 15 15 14 15 17 16 16 14 13 18 20 20
6 3 3 4 7 18 17 7 6 5 6 8 9 10 9 11 16 17 16 14 18 17 16 16 15 19 17 18 13 13 16 19 19 19 18 17 17 19 19 19 21 21 22 23
5 5 2 5 14 10 13 13 11 9 10 8 9 12 13 14 14 15 18 21 19 21 18 18 16 19 19 17 16 16 18 22 22 23 23 20 19 18 18 19 20 18 13 17
Wind_Direction
161 123 184 207 227 118 167 245 242 261 204 121 216 214 234 240 250 257 196 207 216 217 218 215 204 207 207 209 211 214 214 217 223 226 235 226 217 212 209 215 224 229 225 233
9 296 176 210 217 150 231 232 266 281 167 116 140 278 225 216 251 240 218 202 208 223 222 222 205 208 212 216 218 215 220 222 228 230 234 235 230 227 219 217 224 232 232 235
222 214 126 184 238 216 207 219 246 225 136 42 106 329 238 236 253 266 264 245 223 216 218 223 207 211 214 218 218 221 226 229 235 235 231 226 229 221 217 218 221 231 229 234
243 275 273 266 235 196 267 219 246 95 129 190 171 255 270 228 240 249 259 257 248 233 222 227 216 212 218 226 224 225 229 236 240 240 231 228 223 214 214 213 219 225 231 236
254 297 339 324 273 188 233 267 132 187 178 112 171 103 268 150 254 255 255 248 242 233 229 225 228 220 222 227 227 225 228 237 239 238 236 231 228 219 205 211 222 232 244 245
253 286 238 225 293 273 319 35 32 51 56 18 218 145 268 183 197 184 216 198 200 215 227 229 224 222 224 224 235 228 230 237 237 234 235 231 228 220 212 218 229 234 236 227
332 270 265 243 318 337 60 65 355 359 4 218 196 94 229 205 192 180 185 152 157 162 184 212 218 219 218 228 235 230 230 235 232 237 235 234 229 224 219 225 224 226 225 224
113 340 219 247 185 213 339 137 148 261 220 281 82 216 252 182 187 184 182 180 139 129 139 166 195 214 219 238 234 229 228 235 237 240 232 242 233 226 225 228 230 240 239 233
161 269 293 244 247 134 291 356 188 124 230 29 270 1 5 351 183 174 199 175 151 134 127 138 157 183 215 224 237 244 232 242 242 244 232 248 233 223 223 222 225 252 247 249
241 324 304 317 54 313 161 189 19 13 24 323 329 310 221 210 209 159 154 161 146 136 131 133 148 178 205 222 234 235 237 250 247 251 251 251 235 229 224 226 234 262 242 239
33 96 291 20 8 281 351 350 47 114 133 166 200 265 213 195 202 173 142 145 136 127 131 133 148 169 193 214 227 236 247 257 261 257 266 251 241 232 227 225 231 259 233 237
217 164 295 252 261 276 161 69 114 109 276 229 146 278 349 221 146 137 139 139 147 147 143 140 149 197 223 221 220 235 256 254 259 259 259 257 255 240 230 225 244 238 233 234
189 34 15 342 353 1 34 349 47 133 100 279 118 270 0 91 104 134 142 151 154 163 183 198 198 199 290 272 255 259 270 278 278 263 258 257 255 254 225 261 243 227 238 248
104 118 153 193 219 215 308 329 16 87 100 241 221 224 11 79 127 150 157 167 182 197 195 202 214 253 300 286 284 303 314 309 286 266 259 262 256 263 189 223 229 219 226 246
107 181 175 233 232 275 285 314 326 325 248 183 266 167 206 182 166 174 184 201 204 204 204 215 235 256 287 293 293 315 320 327 308 289 287 254 261 225 212 225 221 216 236 236
14 252 163 265 280 257 255 283 298 296 274 294 162 169 197 190 159 149 152 145 164 198 211 224 239 259 283 299 305 314 316 325 329 305 255 236 232 239 216 248 221 226 223 215
158 137 63 278 270 326 328 257 259 257 274 196 189 209 170 162 152 146 139 139 131 132 159 228 275 284 282 288 289 301 312 319 328 323 240 224 233 235 229 229 222 233 222 237
198 138 134 244 42 237 238 242 217 205 300 82 72 102 161 165 160 160 157 150 112 336 295 288 294 276 274 274 288 296 306 322 321 342 256 233 226 225 214 223 226 203 215 232
140 119 232 177 205 279 304 245 190 213 229 207 149 164 162 155 149 168 159 139 326 304 284 282 286 285 276 271 286 288 290 305 312 345 243 227 236 225 229 223 233 221 224 211
97 139 141 102 223 237 233 246 253 131 209 198 149 162 158 160 72 250 199 240 291 296 288 263 279 295 281 273 277 295 280 283 278 264 205 244 221 222 226 223 218 212 211 200
334 347 219 244 248 288 255 292 114 143 238 167 153 158 160 170 207 267 243 251 267 278 273 271 275 287 291 282 273 281 271 276 245 227 212 232 200 192 184 177 183 177 176 178
196 178 311 339 323 326 337 334 187 217 170 180 183 186 199 224 243 250 244 240 249 261 273 278 271 258 261 269 267 270 269 265 236 227 204 198 181 183 189 186 186 182 185 195
292 158 214 169 236 274 309 230 1 206 215 204 202 210 224 246 253 256 242 246 251 262 275 269 266 250 258 282 262 264 270 249 236 224 203 193 193 184 189 199 200 195 204 209
315 94 192 31 310 313 91 69 67 81 113 110 147 239 271 291 291 276 277 259 245 256 272 274 262 258 262 258 272 258 249 244 237 229 219 206 199 195 199 196 217 214 209 218
218 10 286 286 300 321 281 241 199 199 214 233 248 256 270 293 301 308 310 292 267 266 263 255 266 273 276 273 253 249 246 236 234 226 222 213 207 207 208 209 213 222 231 231
234 229 173 241 288 295 276 276 253 250 248 250 263 272 281 285 288 291 295 298 291 263 252 253 271 262 265 259 247 243 240 236 234 229 222 223 221 217 223 227 226 231 230 230